Weather History for Poplar Bluff, MO

Change the Weather History Date:

Thursday, January 24, 2013

  Actual Average Record
Temperature  
Mean Temperature 31 °F -  
Max Temperature 36 °F 46 °F 78 °F (1943)
Min Temperature 26 °F 26 °F -10 °F (1963)
Degree Days  
Heating Degree Days 34    
Moisture  
Dew Point 16 °F    
Average Humidity 54    
Maximum Humidity 64    
Minimum Humidity 43    
Precipitation  
Precipitation 0.00 in - - ()
Sea Level Pressure  
Sea Level Pressure 30.41 in    
Wind  
Wind Speed 12 mph (NE)    
Max Wind Speed 15 mph    
Max Gust Speed 24 mph    
Visibility 10 miles    
Events      
Averages and records for this station are not official NWS values.
T = Trace of Precipitation, MM = Missing Value Source: NWS Daily Summary

Daily Weather History Graph

Daily Weather History Graph

Search for Another Location

Airport:

Trip Planner

Search our weather history database for the weather conditions in past years. The results will help you decide how hot, cold, wet, or windy it might be!

Date:

Astronomy

Jan. 24, 2013 Rise Set
Actual Time 7:08 AM CST 5:18 PM CST
Civil Twilight 6:41 AM CST 5:46 PM CST
Nautical Twilight 6:09 AM CST 6:17 PM CST
Astronomical Twilight 5:39 AM CST 6:48 PM CST
Moon 3:21 PM CST (1/24) 5:05 AM CST (1/24)
Length of Visible Light 11h 05m
Length of Day
10h 09m
Waxing Gibbous, 94% of the Moon is Illuminated
Jan 24
Waxing Gibbous
Jan 26
Full
Feb 3
Last Quarter
Feb 10
New
Feb 17
First Quarter

Hourly Weather History & Observations

Time (CST) Temp. Windchill Dew Point Humidity Pressure Visibility Wind Dir Wind Speed Gust Speed Precip Events Conditions
12:53 AM 36.0 °F 28.5 °F 25.0 °F 64% 30.30 in 10.0 mi North 10.4 mph - N/A   Clear
1:53 AM 36.0 °F 27.1 °F 23.0 °F 59% 30.32 in 10.0 mi North 13.8 mph 21.9 mph N/A   Clear
2:53 AM 34.0 °F 24.2 °F 21.0 °F 59% 30.34 in 10.0 mi North 15.0 mph - N/A   Clear
3:53 AM 33.1 °F 23.9 °F 18.0 °F 54% 30.36 in 10.0 mi NNE 12.7 mph 20.7 mph N/A   Clear
4:53 AM 30.9 °F 21.7 °F 17.1 °F 57% 30.40 in 10.0 mi NNE 11.5 mph - N/A   Clear
5:53 AM 28.9 °F 18.2 °F 17.1 °F 61% 30.44 in 10.0 mi NNE 13.8 mph - N/A   Clear
6:53 AM 27.0 °F 15.6 °F 15.1 °F 61% 30.47 in 10.0 mi NE 13.8 mph 23.0 mph N/A   Clear
7:53 AM 26.1 °F 14.0 °F 12.9 °F 58% 30.51 in 10.0 mi NNE 15.0 mph 24.2 mph N/A   Scattered Clouds
8:53 AM 26.1 °F 14.0 °F 12.0 °F 55% 30.53 in 10.0 mi NNE 15.0 mph 21.9 mph N/A   Mostly Cloudy
9:53 AM 26.1 °F 14.5 °F 12.9 °F 58% 30.56 in 10.0 mi NNE 13.8 mph - N/A   Clear
10:53 AM 28.0 °F 17.5 °F 14.0 °F 56% 30.57 in 10.0 mi NE 12.7 mph - N/A   Clear
11:53 AM 30.0 °F 19.5 °F 12.9 °F 49% 30.53 in 10.0 mi ENE 13.8 mph - N/A   Mostly Cloudy
12:53 PM 30.0 °F 21.1 °F 12.0 °F 47% 30.50 in 10.0 mi NE 10.4 mph - N/A   Mostly Cloudy
1:53 PM 30.9 °F 21.7 °F 12.0 °F 46% 30.45 in 10.0 mi NE 11.5 mph - N/A   Clear
2:53 PM 30.9 °F 21.7 °F 10.9 °F 43% 30.43 in 10.0 mi East 11.5 mph - N/A   Mostly Cloudy
3:53 PM 32.0 °F 22.5 °F 12.9 °F 45% 30.40 in 10.0 mi ENE 12.7 mph - N/A   Mostly Cloudy
4:53 PM 32.0 °F 24.8 °F 15.1 °F 50% 30.40 in 10.0 mi ENE 8.1 mph - N/A   Overcast
5:53 PM 32.0 °F 24.8 °F 15.1 °F 50% 30.39 in 10.0 mi ENE 8.1 mph - N/A   Overcast
6:53 PM 32.0 °F 24.2 °F 16.0 °F 52% 30.38 in 10.0 mi ENE 9.2 mph - N/A   Overcast
7:53 PM 32.0 °F 23.6 °F 17.1 °F 54% 30.36 in 10.0 mi ENE 10.4 mph - N/A   Overcast
8:53 PM 33.1 °F 25.5 °F 18.0 °F 54% 30.33 in 10.0 mi East 9.2 mph - N/A   Overcast
9:53 PM 33.1 °F 27.7 °F 17.1 °F 52% 30.32 in 10.0 mi ENE 5.8 mph - N/A   Overcast
10:53 PM 33.1 °F 26.9 °F 17.1 °F 52% 30.29 in 10.0 mi East 6.9 mph - N/A   Overcast
11:53 PM 33.1 °F 26.9 °F 17.1 °F 52% 30.27 in 10.0 mi East 6.9 mph - N/A   Overcast